Regional Weather Roundup
Issued by NWS Mt. Holly, NJ

Home | Current Version | Previous Version | Text Only | Print | Product List | Glossary On
Versions: 1 2 3 4 5 6 7 8 9 10 11 12 13 14 15 16 17 18 19 20 21 22 23 24 25 26 27
000
ASUS41 KPHI 271612
RWRPHI

REGIONAL WEATHER ROUNDUP
NATIONAL WEATHER SERVICE MOUNT HOLLY NJ
1200 PM EDT MON MAR 27 2017

NOTE:  "FAIR" INDICATES FEW OR NO CLOUDS BELOW 12,000 FEET WITH NO
SIGNIFICANT WEATHER AND/OR OBSTRUCTIONS TO VISIBILITY.

 * = STATION DOES NOT REPORT PRECIPITATION (E.G. RAIN, SNOW, ETC.)
        OR FOG.

NJZ015>026-271700-
SOUTHERN NEW JERSEY

CITY           SKY/WX    TMP DP  RH WIND       PRES   REMARKS
POMONA         LGT RAIN  57  55  93 S5        30.07F
WILDWOOD*      LGT RAIN  63  58  83 SW8       30.07F
MILLVILLE      CLOUDY    57  56  96 CALM      30.07S
WRIGHTSTOWN    CLOUDY    51  50  98 W3        30.04F
MOUNT HOLLY    CLOUDY    50  48  93 SW3       30.07F
TRENTON        CLOUDY    46  45  96 CALM      30.06F

$$
NJZ001>014-271700-
NORTHERN NEW JERSEY

CITY           SKY/WX    TMP DP  RH WIND       PRES   REMARKS
SUSSEX         CLOUDY    41  39  93 CALM      30.05F
ANDOVER*         N/A     43  40  89 CALM      30.05F
MORRISTOWN     CLOUDY    43  41  93 CALM      30.07F
NEWARK         CLOUDY    45  44  97 CALM      30.07F
TETERBORO      DRIZZLE   44  41  89 E3        30.06F FOG
CALDWELL       CLOUDY    43  40  89 CALM      30.07F
SOMERVILLE     CLOUDY    45  42  89 CALM      30.05F
ALLAIRE*       CLOUDY    52  51  97 SW7       30.07F
TOMS RIVER*    CLOUDY    56  54  93 W12       30.07S

$$
PAZ043-044-047-054-055-060>062-066>071-271700-
EASTERN PENNSYLVANIA

CITY           SKY/WX    TMP DP  RH WIND       PRES   REMARKS
PHILADELPHIA   CLOUDY    49  47  93 SE3       30.07F FOG
NORTH PHILA    CLOUDY    49  47  93 CALM      30.08F FOG
BLUE BELL*     CLOUDY    45  45 100 CALM      30.05F
DOYLESTOWN     CLOUDY    46  46 100 CALM      30.05F
QUAKERTOWN*    CLOUDY    45  45 100 CALM      30.06F
PERKASIE*      CLOUDY    46  46 100 CALM      30.06F
POTTSTOWN        N/A     44  43  96 CALM      30.07F FOG
LANCASTER      CLOUDY    48  48 100 VRB3      30.05F FOG
COATESVILLE    FOG       48  48 100 CALM      30.06F VSB 1
READING        CLOUDY    46  45  96 CALM      30.05F FOG
ALLENTOWN      CLOUDY    44  40  85 CALM      30.06F FOG
MOUNT POCONO   CLOUDY    44  44 100 SW10      30.00F
HAZLETON       CLOUDY    52  50  93 CALM      30.04F
LEHIGHTON      CLOUDY    43  41  93 CALM      30.06F
WILKES BARRE   CLOUDY    46  43  89 W3        30.02F

$$
DEZALL-MDZ008-012-015-019-020-271700-
DELAWARE AND EASTERN MARYLAND

CITY           SKY/WX    TMP DP  RH WIND       PRES   REMARKS
WILMINGTON     CLOUDY    50  49  96 CALM      30.07F
DOVER          CLOUDY    63  63 100 SW9       30.05F
GEORGETOWN     CLOUDY    69  56  62 SW18G24   30.07F
EASTON         PTSUNNY   64  55  72 SW10      30.10F
ABERDEEN       CLOUDY    50  49  97 S3        30.07F FOG
PATUXENT       CLOUDY    68  58  70 S17G24    30.05F
OCEAN CITY     MOSUNNY   68  54  60 SW15G23   30.09F
WALLOPS ISLAND PTSUNNY   65  55  70 S15       30.11F
CAMBRIDGE      MOSUNNY   66  57  72 S9G17     30.06F
SALISBURY      CLOUDY    70  57  63 SW17      30.08F

$$
PAZ001-021-NYZ056-072-MDZ011-DCZ001-271700-
OTHER NEARBY LOCATIONS

CITY           SKY/WX    TMP DP  RH WIND       PRES   REMARKS
HARRISBURG     CLOUDY    46  45  96 S3        30.05F FOG
STATE COLLEGE  CLOUDY    50  46  87 SW9       30.02S
WILLIAMSPORT   CLOUDY    45  42  89 E6        30.03F
BINGHAMTON     CLOUDY    40  40 100 SW6       29.98S
NEW YORK CITY  CLOUDY    44  42  93 NE5       30.09F FOG
BALTIMORE      CLOUDY    54  52  93 SW6       30.06F FOG
WASHINGTON DC  CLOUDY    56  52  86 S7        30.06F

$$




USA.gov is the U.S. government's official web portal to all federal, state and local government web resources and services.